Location: La Pernelle
(49.6188°N, 1.2999°W)
Time: 07:58:44
(UTC+00:00)

SL-16 R/B - Pass Details

Date: 12 June 2021
Orbit: 843 x 845 km, 71.0° (Epoch: 26 July)

Event Time Altitude Azimuth Distance (km) Brightness Sun altitude
Rises 22:37:15 0° 222° (SW) 3,391 5.1 -14.6°
Reaches altitude 10° 22:39:45 10° 227° (SW) 2,460 4.4 -14.7°
Maximum altitude 22:45:16 54° 305° (NW) 1,017 2.9 -15.0°
Drops below altitude 10° 22:50:51 10° 23° (NNE) 2,476 5.4 -15.3°
Sets 22:53:22 0° 28° (NNE) 3,415 6.1 -15.4°
